Hourly Weather Barrancas

Today, 19 April, Monday

Time Temperature Precipitation Wind Pressure Humidity
00:00 +24°C° 0 mm 1 mps 760 mmHg 92%
01:00 +24°C° 0 mm 1 mps 759 mmHg 94%
02:00 +23°C° 0 mm 1 mps 759 mmHg 96%
03:00 +23°C° 0 mm 1 mps 759 mmHg 97%
04:00 +23°C° 0 mm 1 mps 759 mmHg 97%
05:00 +23°C° 0 mm 1 mps 759 mmHg 97%
06:00 +24°C° 0 mm 1 mps 760 mmHg 90%
07:00 +26°C° 0 mm 2 mps 760 mmHg 82%
08:00 +28°C° 0 mm 2 mps 760 mmHg 74%
09:00 +30°C° 0.1 mm 3 mps 760 mmHg 65%
10:00 +33°C° 0.1 mm 3 mps 760 mmHg 55%
11:00 +35°C° 0.1 mm 4 mps 760 mmHg 45%
12:00 +35°C° 0 mm 4 mps 759 mmHg 42%
13:00 +36°C° 0 mm 4 mps 758 mmHg 38%
14:00 +37°C° 0 mm 3 mps 757 mmHg 35%
15:00 +36°C° 0 mm 4 mps 757 mmHg 35%
16:00 +36°C° 0 mm 4 mps 757 mmHg 36%
17:00 +35°C° 0 mm 4 mps 756 mmHg 37%
18:00 +33°C° 0 mm 4 mps 757 mmHg 47%
19:00 +30°C° 0 mm 3 mps 758 mmHg 57%
20:00 +28°C° 0 mm 3 mps 759 mmHg 67%
21:00 +27°C° 0 mm 2 mps 759 mmHg 74%
22:00 +26°C° 0 mm 2 mps 759 mmHg 80%
23:00 +25°C° 0 mm 1 mps 760 mmHg 87%

Tomorrow, 20 April, Tuesday

Time Temperature Precipitation Wind Pressure Humidity
00:00 +24°C° 0 mm 1 mps 759 mmHg 90%
01:00 +24°C° 0 mm 1 mps 759 mmHg 93%
02:00 +23°C° 0 mm 1 mps 759 mmHg 96%
03:00 +23°C° 0.1 mm 1 mps 759 mmHg 97%
04:00 +23°C° 0.1 mm 1 mps 759 mmHg 97%
05:00 +23°C° 0.1 mm 1 mps 759 mmHg 98%
06:00 +24°C° 0 mm 1 mps 760 mmHg 90%
07:00 +25°C° 0 mm 1 mps 760 mmHg 83%
08:00 +27°C° 0 mm 2 mps 761 mmHg 76%
09:00 +29°C° 0 mm 2 mps 760 mmHg 64%
10:00 +32°C° 0 mm 2 mps 760 mmHg 52%
11:00 +35°C° 0 mm 3 mps 760 mmHg 39%
12:00 +36°C° 0 mm 3 mps 759 mmHg 36%
13:00 +37°C° 0 mm 3 mps 758 mmHg 32%
14:00 +38°C° 0 mm 3 mps 757 mmHg 28%
15:00 +37°C° 0 mm 3 mps 757 mmHg 31%
16:00 +36°C° 0 mm 3 mps 756 mmHg 35%
17:00 +35°C° 0 mm 3 mps 756 mmHg 39%
18:00 +33°C° 0 mm 3 mps 757 mmHg 48%
19:00 +30°C° 0 mm 3 mps 758 mmHg 58%
20:00 +28°C° 0 mm 3 mps 758 mmHg 68%
21:00 +27°C° 0 mm 3 mps 759 mmHg 74%
22:00 +26°C° 0 mm 2 mps 759 mmHg 80%
23:00 +25°C° 0 mm 2 mps 759 mmHg 86%

Day after tomorrow, 21 April, Wednesday

Time Temperature Precipitation Wind Pressure Humidity
00:00 +25°C° 0 mm 2 mps 759 mmHg 89%
01:00 +24°C° 0 mm 1 mps 759 mmHg 92%
02:00 +24°C° 0 mm 1 mps 758 mmHg 95%
03:00 +23°C° 0 mm 1 mps 758 mmHg 96%
04:00 +23°C° 0 mm 1 mps 758 mmHg 97%
05:00 +23°C° 0 mm 1 mps 759 mmHg 98%
06:00 +25°C° 0 mm 1 mps 759 mmHg 89%
07:00 +26°C° 0 mm 2 mps 759 mmHg 81%
08:00 +28°C° 0 mm 2 mps 760 mmHg 72%
09:00 +30°C° 0 mm 2 mps 759 mmHg 62%
10:00 +32°C° 0 mm 2 mps 759 mmHg 52%
11:00 +36°C° 0 mm 3 mps 759 mmHg 42%
12:00 +35°C° 0 mm 3 mps 758 mmHg 44%
13:00 +35°C° 0 mm 3 mps 758 mmHg 45%
14:00 +34°C° 0 mm 4 mps 757 mmHg 46%
15:00 +34°C° 0 mm 4 mps 757 mmHg 47%
16:00 +34°C° 0 mm 4 mps 756 mmHg 48%
17:00 +34°C° 0 mm 4 mps 756 mmHg 48%
18:00 +32°C° 0 mm 4 mps 757 mmHg 54%
19:00 +30°C° 0 mm 3 mps 757 mmHg 61%
20:00 +28°C° 0 mm 3 mps 758 mmHg 67%
21:00 +27°C° 0 mm 3 mps 758 mmHg 72%
22:00 +26°C° 0 mm 2 mps 759 mmHg 78%
23:00 +25°C° 0 mm 2 mps 759 mmHg 84%

22 April, Thursday

Time Temperature Precipitation Wind Pressure Humidity
00:00 +25°C° 0 mm 2 mps 758 mmHg 87%
01:00 +24°C° 0 mm 2 mps 758 mmHg 90%
02:00 +24°C° 0 mm 1 mps 758 mmHg 93%
03:00 +24°C° 0 mm 1 mps 758 mmHg 94%
04:00 +24°C° 0 mm 1 mps 758 mmHg 95%
05:00 +23°C° 0 mm 1 mps 758 mmHg 97%
06:00 +25°C° 0 mm 1 mps 758 mmHg 90%
07:00 +26°C° 0 mm 1 mps 759 mmHg 84%
08:00 +27°C° 0 mm 2 mps 759 mmHg 78%
09:00 +30°C° 0 mm 2 mps 759 mmHg 67%
10:00 +32°C° 0 mm 2 mps 759 mmHg 55%
11:00 +36°C° 0 mm 3 mps 759 mmHg 44%
12:00 +36°C° 0 mm 3 mps 758 mmHg 43%
13:00 +36°C° 0 mm 3 mps 757 mmHg 41%
14:00 +36°C° 0 mm 3 mps 756 mmHg 40%
15:00 +36°C° 0 mm 4 mps 756 mmHg 42%
16:00 +35°C° 0 mm 4 mps 756 mmHg 44%
17:00 +35°C° 0 mm 4 mps 756 mmHg 46%
18:00 +33°C° 0 mm 4 mps 756 mmHg 55%
19:00 +30°C° 0 mm 3 mps 757 mmHg 63%
20:00 +28°C° 0 mm 3 mps 758 mmHg 72%
21:00 +27°C° 0 mm 3 mps 758 mmHg 77%
22:00 +27°C° 0 mm 3 mps 758 mmHg 81%
23:00 +26°C° 0 mm 2 mps 759 mmHg 86%

23 April, Friday

Time Temperature Precipitation Wind Pressure Humidity
00:00 +26°C° 0 mm 2 mps 758 mmHg 88%
01:00 +25°C° 0 mm 2 mps 758 mmHg 91%
02:00 +25°C° 0 mm 2 mps 758 mmHg 93%
03:00 +25°C° 0 mm 1 mps 758 mmHg 94%
04:00 +24°C° 0 mm 1 mps 758 mmHg 96%
05:00 +24°C° 0 mm 1 mps 758 mmHg 97%
06:00 +26°C° 0 mm 1 mps 759 mmHg 89%
07:00 +27°C° 0 mm 2 mps 759 mmHg 81%
08:00 +29°C° 0 mm 2 mps 760 mmHg 73%
09:00 +31°C° 0 mm 3 mps 759 mmHg 62%
10:00 +34°C° 0 mm 3 mps 759 mmHg 52%
11:00 +37°C° 0 mm 4 mps 759 mmHg 41%
12:00 +36°C° 0 mm 4 mps 758 mmHg 42%
13:00 +36°C° 0 mm 4 mps 757 mmHg 43%
14:00 +36°C° 0 mm 4 mps 756 mmHg 44%
15:00 +35°C° 0 mm 4 mps 756 mmHg 45%
16:00 +35°C° 0 mm 4 mps 756 mmHg 47%
17:00 +34°C° 0 mm 4 mps 756 mmHg 48%
18:00 +33°C° 0 mm 3 mps 757 mmHg 56%
19:00 +30°C° 0 mm 3 mps 757 mmHg 64%
20:00 +28°C° 0 mm 3 mps 758 mmHg 72%
21:00 +27°C° 0 mm 3 mps 758 mmHg 78%
22:00 +27°C° 0 mm 2 mps 758 mmHg 84%
23:00 +26°C° 0 mm 2 mps 759 mmHg 90%

24 April, Saturday

Time Temperature Precipitation Wind Pressure Humidity
00:00 +25°C° 0 mm 2 mps 758 mmHg 92%
01:00 +25°C° 0 mm 1 mps 758 mmHg 95%
02:00 +25°C° 0 mm 1 mps 757 mmHg 97%
03:00 +24°C° 0 mm 1 mps 757 mmHg 98%
04:00 +24°C° 0 mm 1 mps 758 mmHg 98%
05:00 +24°C° 0 mm 1 mps 758 mmHg 99%
06:00 +25°C° 0 mm 1 mps 758 mmHg 92%
07:00 +27°C° 0 mm 2 mps 759 mmHg 86%
08:00 +28°C° 0 mm 2 mps 759 mmHg 80%
09:00 +30°C° 0.1 mm 2 mps 759 mmHg 70%
10:00 +33°C° 0.1 mm 3 mps 759 mmHg 60%
11:00 +35°C° 0.1 mm 3 mps 759 mmHg 51%
12:00 +35°C° 0.1 mm 3 mps 758 mmHg 49%
13:00 +35°C° 0.1 mm 4 mps 757 mmHg 47%
14:00 +36°C° 0.1 mm 4 mps 756 mmHg 46%
15:00 +35°C° 0 mm 4 mps 756 mmHg 48%
16:00 +34°C° 0 mm 4 mps 756 mmHg 51%
17:00 +34°C° 0 mm 4 mps 756 mmHg 53%
18:00 +31°C° 0 mm 3 mps 757 mmHg 62%
19:00 +29°C° 0 mm 3 mps 757 mmHg 71%
20:00 +27°C° 0 mm 2 mps 758 mmHg 79%
21:00 +27°C° 0 mm 2 mps 758 mmHg 84%
22:00 +26°C° 0 mm 2 mps 758 mmHg 89%
23:00 +25°C° 0 mm 1 mps 758 mmHg 94%
Show more